Wetterdaten: Samstag, 21.03.2015
Datum Zeit Temp. A. Feuchte A. Luftdruck Regen Wind Richtung Richtung Sonnenschein ET UV Solar Taupunkt Windchill Windben Empfang
21.03.2015 00:00 1,0 C 68 % 1019,5 hPa 0,0 l/m 0,0 km/h (0 Bft) S 176 0 min 0,000 mm 0,0 UV-I 0 W/m -4,2 C 1,0 C 0,0 km/h (0 Bft) 0,00 %
21.03.2015 00:15 0,8 C 70 % 1019,3 hPa 0,0 l/m 0,0 km/h (0 Bft) S 174 0 min 0,000 mm 0,0 UV-I 0 W/m -4,0 C 0,8 C 0,0 km/h (0 Bft) 0,00 %
21.03.2015 00:30 0,7 C 70 % 1019,2 hPa 0,0 l/m 0,0 km/h (0 Bft) S 174 0 min 0,000 mm 0,0 UV-I 0 W/m -4,1 C 0,7 C 0,0 km/h (0 Bft) 0,00 %
21.03.2015 00:45 0,4 C 72 % 1019,2 hPa 0,0 l/m 0,0 km/h (0 Bft) S 177 0 min 0,000 mm 0,0 UV-I 0 W/m -4,0 C 0,4 C 0,0 km/h (0 Bft) 0,00 %
21.03.2015 01:00 0,4 C 73 % 1019,3 hPa 0,0 l/m 0,0 km/h (0 Bft) S 173 0 min 0,000 mm 0,0 UV-I 0 W/m -3,9 C 0,4 C 0,0 km/h (0 Bft) 0,00 %
21.03.2015 01:15 0,3 C 73 % 1019,2 hPa 0,0 l/m 0,0 km/h (0 Bft) S 175 0 min 0,000 mm 0,0 UV-I 0 W/m -4,0 C 0,3 C 0,0 km/h (0 Bft) 0,00 %
21.03.2015 01:30 0,4 C 73 % 1019,0 hPa 0,0 l/m 0,0 km/h (0 Bft) S 174 0 min 0,000 mm 0,0 UV-I 0 W/m -3,9 C 0,4 C 0,0 km/h (0 Bft) 0,00 %
21.03.2015 01:45 0,5 C 73 % 1018,5 hPa 0,0 l/m 0,0 km/h (0 Bft) S 173 0 min 0,000 mm 0,0 UV-I 0 W/m -3,8 C 0,5 C 0,0 km/h (0 Bft) 0,00 %
21.03.2015 02:00 0,3 C 73 % 1018,7 hPa 0,0 l/m 0,0 km/h (0 Bft) S 175 0 min 0,000 mm 0,0 UV-I 0 W/m -4,0 C 0,3 C 0,0 km/h (0 Bft) 0,00 %
21.03.2015 02:15 -0,2 C 76 % 1018,8 hPa 0,0 l/m 0,0 km/h (0 Bft) S 173 0 min 0,000 mm 0,0 UV-I 0 W/m -3,9 C -0,2 C 0,0 km/h (0 Bft) 0,00 %
21.03.2015 02:30 -0,4 C 76 % 1018,6 hPa 0,0 l/m 0,0 km/h (0 Bft) S 188 0 min 0,000 mm 0,0 UV-I 0 W/m -4,1 C -0,4 C 0,0 km/h (0 Bft) 0,00 %
21.03.2015 02:45 -0,5 C 77 % 1018,4 hPa 0,0 l/m 0,0 km/h (0 Bft) S 178 0 min 0,000 mm 0,0 UV-I 0 W/m -4,0 C -0,5 C 0,0 km/h (0 Bft) 0,00 %
21.03.2015 03:00 -0,4 C 76 % 1018,1 hPa 0,0 l/m 0,0 km/h (0 Bft) S 187 0 min 0,000 mm 0,0 UV-I 0 W/m -4,1 C -0,4 C 0,0 km/h (0 Bft) 0,00 %
21.03.2015 03:15 -0,5 C 78 % 1018,1 hPa 0,0 l/m 0,0 km/h (0 Bft) S 187 0 min 0,000 mm 0,0 UV-I 0 W/m -3,9 C -0,5 C 0,0 km/h (0 Bft) 0,00 %
21.03.2015 03:30 -0,8 C 78 % 1017,9 hPa 0,0 l/m 0,0 km/h (0 Bft) S 187 0 min 0,000 mm 0,0 UV-I 0 W/m -4,1 C -0,8 C 0,0 km/h (0 Bft) 0,00 %
21.03.2015 03:45 -1,1 C 78 % 1017,7 hPa 0,0 l/m 0,0 km/h (0 Bft) S 179 0 min 0,000 mm 0,0 UV-I 0 W/m -4,4 C -1,1 C 0,0 km/h (0 Bft) 0,00 %
21.03.2015 04:00 -0,9 C 76 % 1017,6 hPa 0,0 l/m 0,0 km/h (0 Bft) S-SW 212 0 min 0,000 mm 0,0 UV-I 0 W/m -4,6 C -0,9 C 0,0 km/h (0 Bft) 0,00 %
21.03.2015 04:15 -1,1 C 78 % 1017,5 hPa 0,0 l/m 0,0 km/h (0 Bft) S-SW 212 0 min 0,000 mm 0,0 UV-I 0 W/m -4,4 C -1,1 C 0,0 km/h (0 Bft) 0,00 %
21.03.2015 04:30 -1,2 C 79 % 1017,5 hPa 0,0 l/m 0,0 km/h (0 Bft) S-SW 197 0 min 0,000 mm 0,0 UV-I 0 W/m -4,4 C -1,2 C 0,0 km/h (0 Bft) 0,00 %
21.03.2015 04:45 -1,4 C 81 % 1017,4 hPa 0,0 l/m 0,0 km/h (0 Bft) S-SW 197 0 min 0,000 mm 0,0 UV-I 0 W/m -4,2 C -1,4 C 0,0 km/h (0 Bft) 0,00 %
21.03.2015 05:00 -1,6 C 81 % 1017,3 hPa 0,0 l/m 0,0 km/h (0 Bft) S-SW 197 0 min 0,000 mm 0,0 UV-I 0 W/m -4,4 C -1,6 C 0,0 km/h (0 Bft) 0,00 %
21.03.2015 05:15 -2,1 C 82 % 1017,5 hPa 0,0 l/m 0,0 km/h (0 Bft) S-SW 197 0 min 0,000 mm 0,0 UV-I 0 W/m -4,7 C -2,1 C 0,0 km/h (0 Bft) 0,00 %
21.03.2015 05:30 -2,4 C 78 % 1017,5 hPa 0,0 l/m 0,0 km/h (0 Bft) S-SW 197 0 min 0,000 mm 0,0 UV-I 0 W/m -5,7 C -2,4 C 0,0 km/h (0 Bft) 0,00 %
21.03.2015 05:45 -2,4 C 83 % 1017,4 hPa 0,0 l/m 0,0 km/h (0 Bft) S-SW 197 0 min 0,000 mm 0,0 UV-I 0 W/m -4,9 C -2,4 C 0,0 km/h (0 Bft) 0,00 %
21.03.2015 06:00 -2,1 C 83 % 1017,3 hPa 0,0 l/m 0,0 km/h (0 Bft) S 179 0 min 0,000 mm 0,0 UV-I 0 W/m -4,6 C -2,1 C 0,0 km/h (0 Bft) 0,00 %
21.03.2015 06:15 -2,4 C 83 % 1017,4 hPa 0,0 l/m 0,0 km/h (0 Bft) S 180 0 min 0,000 mm 0,0 UV-I 3 W/m -4,9 C -2,4 C 0,0 km/h (0 Bft) 0,00 %
21.03.2015 06:30 -1,9 C 83 % 1017,2 hPa 0,0 l/m 0,0 km/h (0 Bft) S 176 15 min 0,000 mm 0,0 UV-I 50 W/m -4,4 C -1,9 C 0,0 km/h (0 Bft) 0,00 %
21.03.2015 06:45 -1,3 C 82 % 1017,2 hPa 0,0 l/m 0,0 km/h (0 Bft) S 176 15 min 0,000 mm 0,0 UV-I 88 W/m -4,0 C -1,3 C 0,0 km/h (0 Bft) 0,00 %
21.03.2015 07:00 -0,2 C 80 % 1017,2 hPa 0,0 l/m 0,0 km/h (0 Bft) S 176 15 min 0,000 mm 1,0 UV-I 99 W/m -3,2 C -0,2 C 0,0 km/h (0 Bft) 0,00 %
21.03.2015 07:15 0,9 C 71 % 1016,7 hPa 0,0 l/m 0,0 km/h (0 Bft) S 182 15 min 0,000 mm 1,0 UV-I 123 W/m -3,7 C 0,9 C 0,0 km/h (0 Bft) 0,00 %
21.03.2015 07:30 1,9 C 66 % 1016,7 hPa 0,0 l/m 0,0 km/h (0 Bft) S 182 15 min 0,000 mm 1,0 UV-I 133 W/m -3,8 C 1,9 C 0,0 km/h (0 Bft) 0,00 %
21.03.2015 07:45 3,4 C 64 % 1016,4 hPa 0,0 l/m 0,0 km/h (0 Bft) S 182 15 min 0,000 mm 1,0 UV-I 166 W/m -2,7 C 3,4 C 0,0 km/h (0 Bft) 0,00 %
21.03.2015 08:00 4,8 C 60 % 1016,1 hPa 0,0 l/m 0,0 km/h (0 Bft) SO 144 15 min 0,000 mm 1,0 UV-I 177 W/m -2,3 C 4,8 C 0,0 km/h (0 Bft) 0,00 %
21.03.2015 08:15 5,0 C 60 % 1016,2 hPa 0,0 l/m 0,0 km/h (0 Bft) S-SW 202 15 min 0,000 mm 2,0 UV-I 199 W/m -2,1 C 5,0 C 0,0 km/h (0 Bft) 0,00 %
21.03.2015 08:30 4,8 C 59 % 1015,8 hPa 0,0 l/m 0,0 km/h (0 Bft) SW 223 0 min 0,000 mm 2,0 UV-I 210 W/m -2,5 C 4,8 C 0,0 km/h (0 Bft) 0,00 %
21.03.2015 08:45 5,2 C 59 % 1015,8 hPa 0,0 l/m 0,0 km/h (0 Bft) SW 224 0 min 0,000 mm 2,0 UV-I 200 W/m -2,1 C 5,2 C 0,0 km/h (0 Bft) 0,00 %
21.03.2015 09:00 6,6 C 53 % 1015,3 hPa 0,0 l/m 0,0 km/h (0 Bft) S 177 0 min 0,000 mm 2,0 UV-I 233 W/m -2,3 C 6,6 C 0,0 km/h (0 Bft) 0,00 %
21.03.2015 09:15 7,9 C 52 % 1015,2 hPa 0,0 l/m 0,4 km/h (0 Bft) W-NW 289 0 min 0,000 mm 2,0 UV-I 222 W/m -1,3 C 7,9 C 4,0 km/h (1 Bft) 0,00 %
21.03.2015 09:30 6,9 C 53 % 1015,4 hPa 0,0 l/m 0,0 km/h (0 Bft) S-SO 154 0 min 0,000 mm 2,0 UV-I 277 W/m -2,0 C 6,9 C 0,0 km/h (0 Bft) 0,00 %
21.03.2015 09:45 7,6 C 53 % 1015,3 hPa 0,0 l/m 0,0 km/h (0 Bft) W-SW 255 0 min 0,000 mm 3,0 UV-I 288 W/m -1,4 C 7,6 C 0,0 km/h (0 Bft) 0,00 %
21.03.2015 10:00 8,0 C 53 % 1015,0 hPa 0,0 l/m 0,0 km/h (0 Bft) SO 128 0 min 0,000 mm 3,0 UV-I 248 W/m -1,0 C 8,0 C 0,0 km/h (0 Bft) 0,00 %
21.03.2015 10:15 8,8 C 51 % 1015,0 hPa 0,0 l/m 0,0 km/h (0 Bft) SO 134 0 min 0,000 mm 3,0 UV-I 275 W/m -0,8 C 8,8 C 0,0 km/h (0 Bft) 0,00 %
21.03.2015 10:30 9,0 C 49 % 1014,6 hPa 0,0 l/m 0,0 km/h (0 Bft) S 190 0 min 0,000 mm 3,0 UV-I 298 W/m -1,1 C 9,0 C 0,0 km/h (0 Bft) 0,00 %
21.03.2015 10:45 9,5 C 46 % 1014,3 hPa 0,0 l/m 3,2 km/h (1 Bft) W 269 0 min 0,000 mm 3,0 UV-I 215 W/m -1,5 C 9,5 C 7,9 km/h (2 Bft) 0,00 %
21.03.2015 11:00 10,9 C 42 % 1014,1 hPa 0,0 l/m 0,0 km/h (0 Bft) S-SW 209 15 min 0,000 mm 3,0 UV-I 363 W/m -1,5 C 10,9 C 0,0 km/h (0 Bft) 0,00 %
21.03.2015 11:15 11,3 C 41 % 1013,7 hPa 0,0 l/m 0,0 km/h (0 Bft) S 178 15 min 0,000 mm 4,0 UV-I 396 W/m -1,5 C 11,3 C 0,0 km/h (0 Bft) 0,00 %
21.03.2015 11:30 11,8 C 42 % 1013,5 hPa 0,0 l/m 0,0 km/h (0 Bft) S 186 0 min 0,000 mm 4,0 UV-I 246 W/m -0,7 C 11,8 C 0,0 km/h (0 Bft) 0,00 %
21.03.2015 11:45 11,7 C 40 % 1013,1 hPa 0,0 l/m 0,0 km/h (0 Bft) S 182 15 min 0,000 mm 4,0 UV-I 466 W/m -1,4 C 11,7 C 0,0 km/h (0 Bft) 0,00 %
21.03.2015 12:00 12,7 C 37 % 1012,7 hPa 0,0 l/m 2,9 km/h (1 Bft) SW 219 15 min 0,000 mm 4,0 UV-I 482 W/m -1,6 C 12,7 C 4,0 km/h (1 Bft) 0,00 %
21.03.2015 12:15 12,6 C 39 % 1012,5 hPa 0,0 l/m 0,0 km/h (0 Bft) S 177 15 min 0,000 mm 4,0 UV-I 506 W/m -1,0 C 12,6 C 0,0 km/h (0 Bft) 0,00 %
21.03.2015 12:30 12,8 C 38 % 1012,0 hPa 0,0 l/m 0,0 km/h (0 Bft) W-SW 249 15 min 0,000 mm 4,0 UV-I 526 W/m -1,2 C 12,8 C 0,0 km/h (0 Bft) 0,00 %
21.03.2015 12:45 13,0 C 37 % 1011,6 hPa 0,0 l/m 0,0 km/h (0 Bft) S 188 15 min 0,000 mm 3,0 UV-I 423 W/m -1,3 C 13,0 C 0,0 km/h (0 Bft) 0,00 %
21.03.2015 13:00 13,8 C 36 % 1011,1 hPa 0,0 l/m 0,0 km/h (0 Bft) SO 124 0 min 0,000 mm 3,0 UV-I 305 W/m -1,0 C 13,8 C 0,0 km/h (0 Bft) 0,00 %
21.03.2015 13:15 13,0 C 38 % 1011,2 hPa 0,0 l/m 0,0 km/h (0 Bft) S-SO 160 0 min 0,000 mm 2,0 UV-I 217 W/m -1,0 C 13,0 C 0,0 km/h (0 Bft) 0,00 %
21.03.2015 13:30 13,3 C 39 % 1010,7 hPa 0,0 l/m 0,0 km/h (0 Bft) N-NO 24 0 min 0,000 mm 2,0 UV-I 273 W/m -0,4 C 13,3 C 0,0 km/h (0 Bft) 0,00 %
21.03.2015 13:45 13,4 C 38 % 1010,7 hPa 0,0 l/m 0,0 km/h (0 Bft) SW 224 0 min 0,000 mm 2,0 UV-I 257 W/m -0,6 C 13,4 C 0,0 km/h (0 Bft) 0,00 %
21.03.2015 14:00 13,6 C 36 % 1010,5 hPa 0,0 l/m 0,0 km/h (0 Bft) W-SW 256 0 min 0,000 mm 2,0 UV-I 244 W/m -1,2 C 13,6 C 0,0 km/h (0 Bft) 0,00 %
21.03.2015 14:15 13,3 C 39 % 1010,5 hPa 0,0 l/m 0,0 km/h (0 Bft) O 99 0 min 0,000 mm 2,0 UV-I 314 W/m -0,4 C 13,3 C 0,0 km/h (0 Bft) 0,00 %
21.03.2015 14:30 13,7 C 35 % 1010,3 hPa 0,0 l/m 1,4 km/h (1 Bft) NW 316 0 min 0,000 mm 2,0 UV-I 264 W/m -1,5 C 13,7 C 4,0 km/h (1 Bft) 0,00 %
21.03.2015 14:45 13,8 C 34 % 1010,2 hPa 0,0 l/m 0,0 km/h (0 Bft) S 174 0 min 0,000 mm 2,0 UV-I 236 W/m -1,8 C 13,8 C 0,0 km/h (0 Bft) 0,00 %
21.03.2015 15:00 14,0 C 37 % 1010,1 hPa 0,0 l/m 0,0 km/h (0 Bft) S 174 0 min 0,000 mm 2,0 UV-I 172 W/m -0,4 C 14,0 C 0,0 km/h (0 Bft) 0,00 %
21.03.2015 15:15 13,5 C 35 % 1009,8 hPa 0,0 l/m 0,0 km/h (0 Bft) S 177 0 min 0,000 mm 1,0 UV-I 118 W/m -1,6 C 13,5 C 0,0 km/h (0 Bft) 0,00 %
21.03.2015 15:30 13,2 C 37 % 1010,0 hPa 0,0 l/m 2,2 km/h (1 Bft) O-SO 121 0 min 0,000 mm 1,0 UV-I 126 W/m -1,2 C 13,2 C 4,0 km/h (1 Bft) 0,00 %
21.03.2015 15:45 13,4 C 38 % 1009,8 hPa 0,0 l/m 0,0 km/h (0 Bft) O 85 0 min 0,000 mm 1,0 UV-I 135 W/m -0,6 C 13,4 C 0,0 km/h (0 Bft) 0,00 %
21.03.2015 16:00 13,3 C 40 % 1009,9 hPa 0,0 l/m 0,0 km/h (0 Bft) S 188 0 min 0,000 mm 1,0 UV-I 111 W/m -0,0 C 13,3 C 0,0 km/h (0 Bft) 0,00 %
21.03.2015 16:15 13,1 C 41 % 1010,0 hPa 0,0 l/m 0,0 km/h (0 Bft) S 177 0 min 0,000 mm 1,0 UV-I 84 W/m 0,2 C 13,1 C 0,0 km/h (0 Bft) 0,00 %
21.03.2015 16:30 12,9 C 42 % 1009,7 hPa 0,0 l/m 0,0 km/h (0 Bft) SO 129 0 min 0,000 mm 1,0 UV-I 72 W/m 0,3 C 12,9 C 0,0 km/h (0 Bft) 0,00 %
21.03.2015 16:45 12,6 C 42 % 1009,9 hPa 0,0 l/m 0,0 km/h (0 Bft) SO 141 0 min 0,000 mm 1,0 UV-I 55 W/m 0,0 C 12,6 C 0,0 km/h (0 Bft) 0,00 %
21.03.2015 17:00 12,3 C 50 % 1009,9 hPa 0,0 l/m 0,0 km/h (0 Bft) SO 135 0 min 0,000 mm 0,0 UV-I 30 W/m 2,2 C 12,3 C 0,0 km/h (0 Bft) 0,00 %
21.03.2015 17:15 11,8 C 43 % 1009,7 hPa 0,0 l/m 0,0 km/h (0 Bft) SO 134 0 min 0,000 mm 0,0 UV-I 20 W/m -0,4 C 11,8 C 0,0 km/h (0 Bft) 0,00 %
21.03.2015 17:30 11,5 C 47 % 1009,7 hPa 0,0 l/m 0,0 km/h (0 Bft) O-SO 117 0 min 0,000 mm 0,0 UV-I 4 W/m 0,6 C 11,5 C 0,0 km/h (0 Bft) 0,00 %
21.03.2015 17:45 11,0 C 49 % 1009,9 hPa 0,0 l/m 0,0 km/h (0 Bft) SO 141 0 min 0,000 mm 0,0 UV-I 1 W/m 0,7 C 11,0 C 0,0 km/h (0 Bft) 0,00 %
21.03.2015 18:00 10,6 C 50 % 1009,7 hPa 0,0 l/m 0,0 km/h (0 Bft) SO 136 0 min 0,000 mm 0,0 UV-I 1 W/m 0,6 C 10,6 C 0,0 km/h (0 Bft) 0,00 %
21.03.2015 18:15 10,3 C 51 % 1010,0 hPa 0,0 l/m 0,0 km/h (0 Bft) O-SO 108 0 min 0,000 mm 0,0 UV-I 0 W/m 0,6 C 10,3 C 0,0 km/h (0 Bft) 0,00 %
21.03.2015 18:30 10,2 C 52 % 1009,9 hPa 0,0 l/m 0,0 km/h (0 Bft) S 183 0 min 0,000 mm 0,0 UV-I 0 W/m 0,8 C 10,2 C 0,0 km/h (0 Bft) 0,00 %
21.03.2015 18:45 10,2 C 51 % 1010,0 hPa 0,0 l/m 0,0 km/h (0 Bft) SW 215 0 min 0,000 mm 0,0 UV-I 0 W/m 0,5 C 10,2 C 0,0 km/h (0 Bft) 0,00 %
21.03.2015 19:00 10,1 C 51 % 1010,2 hPa 0,0 l/m 0,0 km/h (0 Bft) S-SW 197 0 min 0,000 mm 0,0 UV-I 0 W/m 0,4 C 10,1 C 0,0 km/h (0 Bft) 0,00 %
21.03.2015 19:15 10,1 C 51 % 1010,4 hPa 0,0 l/m 0,0 km/h (0 Bft) S 178 0 min 0,000 mm 0,0 UV-I 0 W/m 0,4 C 10,1 C 0,0 km/h (0 Bft) 0,00 %
21.03.2015 19:30 10,0 C 52 % 1010,5 hPa 0,0 l/m 0,0 km/h (0 Bft) S-SW 204 0 min 0,000 mm 0,0 UV-I 0 W/m 0,6 C 10,0 C 0,0 km/h (0 Bft) 0,00 %
21.03.2015 19:45 9,6 C 55 % 1010,5 hPa 0,0 l/m 0,0 km/h (0 Bft) S 178 0 min 0,000 mm 0,0 UV-I 0 W/m 1,0 C 9,6 C 0,0 km/h (0 Bft) 0,00 %
21.03.2015 20:00 9,1 C 58 % 1010,8 hPa 0,0 l/m 0,0 km/h (0 Bft) S 178 0 min 0,000 mm 0,0 UV-I 0 W/m 1,3 C 9,1 C 0,0 km/h (0 Bft) 0,00 %
21.03.2015 20:15 8,9 C 60 % 1010,9 hPa 0,0 l/m 0,0 km/h (0 Bft) S 187 0 min 0,000 mm 0,0 UV-I 0 W/m 1,6 C 8,9 C 0,0 km/h (0 Bft) 0,00 %
21.03.2015 20:30 9,3 C 59 % 1011,1 hPa 0,0 l/m 0,4 km/h (0 Bft) SW 231 0 min 0,000 mm 0,0 UV-I 0 W/m 1,7 C 9,3 C 4,0 km/h (1 Bft) 0,00 %
21.03.2015 20:45 9,4 C 62 % 1011,3 hPa 0,0 l/m 0,4 km/h (0 Bft) SW 229 0 min 0,000 mm 0,0 UV-I 0 W/m 2,5 C 9,4 C 4,0 km/h (1 Bft) 0,00 %
21.03.2015 21:00 9,3 C 63 % 1011,4 hPa 0,0 l/m 5,8 km/h (2 Bft) W-SW 255 0 min 0,000 mm 0,0 UV-I 0 W/m 2,6 C 9,3 C 7,9 km/h (2 Bft) 0,00 %
21.03.2015 21:15 9,0 C 64 % 1011,9 hPa 0,0 l/m 0,7 km/h (0 Bft) W-SW 241 0 min 0,000 mm 0,0 UV-I 0 W/m 2,6 C 9,0 C 4,0 km/h (1 Bft) 0,00 %
21.03.2015 21:30 8,4 C 73 % 1012,1 hPa 0,0 l/m 0,0 km/h (0 Bft) S 177 0 min 0,000 mm 0,0 UV-I 0 W/m 3,8 C 8,4 C 0,0 km/h (0 Bft) 0,00 %
21.03.2015 21:45 7,6 C 77 % 1012,3 hPa 0,3 l/m 0,0 km/h (0 Bft) SW 231 0 min 0,000 mm 0,0 UV-I 0 W/m 3,8 C 7,6 C 0,0 km/h (0 Bft) 0,00 %
21.03.2015 22:00 7,3 C 79 % 1012,5 hPa 0,0 l/m 0,0 km/h (0 Bft) SW 230 0 min 0,000 mm 0,0 UV-I 0 W/m 3,9 C 7,3 C 0,0 km/h (0 Bft) 0,00 %
21.03.2015 22:15 7,2 C 80 % 1012,5 hPa 0,3 l/m 0,0 km/h (0 Bft) SW 229 0 min 0,000 mm 0,0 UV-I 0 W/m 4,0 C 7,2 C 0,0 km/h (0 Bft) 0,00 %
21.03.2015 22:30 6,9 C 81 % 1012,8 hPa 0,0 l/m 0,0 km/h (0 Bft) S 179 0 min 0,000 mm 0,0 UV-I 0 W/m 3,9 C 6,9 C 0,0 km/h (0 Bft) 0,00 %
21.03.2015 22:45 6,9 C 82 % 1012,9 hPa 0,0 l/m 0,0 km/h (0 Bft) W-SW 251 0 min 0,000 mm 0,0 UV-I 0 W/m 4,0 C 6,9 C 0,0 km/h (0 Bft) 0,00 %
21.03.2015 23:00 6,8 C 83 % 1012,9 hPa 0,3 l/m 0,4 km/h (0 Bft) SW 228 0 min 0,000 mm 0,0 UV-I 0 W/m 4,1 C 6,8 C 4,0 km/h (1 Bft) 0,00 %
21.03.2015 23:15 6,6 C 84 % 1013,2 hPa 0,3 l/m 0,0 km/h (0 Bft) S-SW 204 0 min 0,000 mm 0,0 UV-I 0 W/m 4,1 C 6,6 C 0,0 km/h (0 Bft) 0,00 %
21.03.2015 23:30 6,4 C 87 % 1013,3 hPa 0,3 l/m 0,0 km/h (0 Bft) SW 222 0 min 0,000 mm 0,0 UV-I 0 W/m 4,4 C 6,4 C 0,0 km/h (0 Bft) 0,00 %
21.03.2015 23:45 6,3 C 87 % 1013,4 hPa 0,3 l/m 0,0 km/h (0 Bft) S-SW 200 0 min 0,000 mm 0,0 UV-I 0 W/m 4,3 C 6,3 C 0,0 km/h (0 Bft) 0,00 %
_ Min-Zeit 05:30 14:45 16:30 - 00:00 - - - - - - 05:30 05:30 00:00 00:00
Minimum _ -2,4 C 34 % 1009,7 hPa - 0,0 km/h (0 Bft) - - - - - - -5,7 C -2,4 C 0,0 km/h (0 Bft) 0,00 %
_ Max-Zeit 15:00 23:30 00:00 21:45 21:00 - - 06:30 00:00 11:15 12:30 23:30 15:00 10:45 00:00
Maximum _ 14,0 C 87 % 1019,5 hPa 0,3 l/m 5,8 km/h
W-SW (2 Bft)
- - 15 min 0,000 mm 4,0 UV-I 526 W/m 4,4 C 14,0 C 7,9 km/h
W (2 Bft)
0,00 %
Durchschnitt _ 6,7 C 60 % 1013,9 hPa #1,8 l/m 0,2 km/h (0 Bft) O-SO - #3:45 h #0,000 mm 2,2 UV-I 207 W/m -1,2 C 6,7 C 0,5 km/h (0 Bft) 0,00 %